Zurück zum Katalog

ARIANE 44L+ DEB

AktivGTO
NORAD 23242·DEBRIS·🇫🇷 France

Gestartet Apr 15, 1992 von Guiana Space Centre

Loading…

TLE

AlterndSource: Space-Track

Epoche: Sep 14, 2026, 13:35 UTC

1 23242U 92021M   26257.56651079 -.00000040  00000-0  99188-2 0  9990
2 23242   3.8785 302.2910 7039819 245.0387 317.9243  2.24660063119019

Verfolge ARIANE 44L+ DEB in Echtzeit mit AllMySat

Download on the App Store